Location: Newark
(45.5000°N, 11.4167°E)
Time: 04:28:51
(UTC+00:00)

Vanguard 2 - Pass Details

Date: 24 August 2019
Orbit: 554 x 2937 km, 32.9° (Epoch: 21 September)

Event Time Altitude Azimuth Distance (km) Brightness Sun altitude
Rises 16:19:54 0° 264° (W) 4,472 13.2 17.8°
Reaches altitude 10° 16:23:03 10° 253° (WSW) 3,817 12.9 17.2°
Maximum altitude 16:31:30 28° 200° (SSW) 3,348 11.2 15.8°
Drops below altitude 10° 16:43:15 10° 149° (SSE) 5,382 11.6 13.7°
Sets 16:48:50 0° 140° (SE) 6,626 11.9 12.7°
